STARLINK-3050 (49180 NORAD) Tracking and Keplerian Element Data

This shows tracking and keplerian element data for the satellite.

Feedback or suggestion? Click here.




ElementValue
Catalog49180
NameSTARLINK-3050
Epoch Orbit367
Epoch Day300.58334491
Epoch Year2021
RAAN4.6252
Inclination69.9995
Eccentricity0.0003941
Argument of Perigee291.919
Mean Anonmoly149.0726
Mean Motion15.69761712
Decay Rate-0.00048043
L11 49180U 21082BC 21300.58334491 -.00048043 00000-0 -40271-3 0 9996
L22 49180 69.9995 4.6252 0003941 291.9190 149.0726 15.69761712 3678

Live tracking and technical data element details for STARLINK-3050 (NORAD 49180). STARLINK-3050 can be tracked NOW for your location showing map with azimuth and elevation plus other details from your city location.

Track the satellite on the map from your city or location and see movement details for azimuth, elevation, latitude, longitude, range, height, and movement on the map or in text.







IsCatalogInMostPopularTable: catalog: 49180, numindb: 10
Update: records affected: 1



GetName: 49180 STARLINK-3050

Hit Count: updated at: Thu, 28 Oct 2021 11:35:42 GMT